Estherville, IA

1:43 PM CDT on July 23, 2017 (GMT -0500)
Estherville Municipal

Weather History for KEST - December, 2012

Change the Weather History Date:

Wednesday, December 5, 2012

  Actual Average Record
Temperature  
Mean Temperature 30 °F 22 °F  
Max Temperature 45 °F 31 °F 62 °F (2001)
Min Temperature 15 °F 14 °F -11 °F (2005)
Degree Days  
Heating Degree Days 35 43  
Month to date heating degree days 135 209  
Since 1 July heating degree days 1741 1928  
Cooling Degree Days 0 0  
Month to date cooling degree days 0 0  
Year to date cooling degree days 886 593  
Moisture  
Dew Point 20 °F    
Average Humidity 65    
Maximum Humidity 80    
Minimum Humidity 49    
Precipitation  
Precipitation 0.00 in 0.05 in 0.70 in (1953)
Month to date precipitation 0.00 0.25  
Sea Level Pressure  
Sea Level Pressure 30.15 in    
Wind  
Wind Speed 17 mph (SSE)    
Max Wind Speed 32 mph    
Max Gust Speed 38 mph    
Visibility 10 miles    
Events      
T = Trace of Precipitation, MM = Missing Value Source: NWS Daily Summary

Daily Weather History Graph

Daily Weather History Graph

Search for Another Location

Airport or City:

Trip Planner

Search our weather history database for the weather conditions in past years. The results will help you decide how hot, cold, wet, or windy it might be!

Date:

Astronomy

Dec. 05, 2012 Rise Set
Actual Time 7:36 AM CST 4:43 PM CST
Civil Twilight 7:04 AM CST 5:15 PM CST
Nautical Twilight 6:28 AM CST 5:51 PM CST
Astronomical Twilight 5:53 AM CST 6:25 PM CST
Moon 11:42 PM CST (12/5) 11:52 AM CST (12/5)
Length of Visible Light 10h 11m
Length of Day
9h 06m
Waning Gibbous, 59% of the Moon is Illuminated
Dec 5
Waning Gibbous
Dec 6
Last Quarter
Dec 13
New
Dec 19
First Quarter
Dec 28
Full

Hourly Weather History & Observations

Time (CST) Temp. Windchill Dew Point Humidity Pressure Visibility Wind Dir Wind Speed Gust Speed Precip Events Conditions
12:52 AM 18.0 °F - 10.9 °F 74% 30.41 in 10.0 mi Calm Calm - N/A   Clear
1:52 AM 18.0 °F - 10.9 °F 74% 30.38 in 10.0 mi Calm Calm - N/A   Clear
2:52 AM 17.1 °F 7.6 °F 10.0 °F 74% 30.38 in 10.0 mi East 6.9 mph - N/A   Clear
3:52 AM 17.1 °F 7.6 °F 10.9 °F 77% 30.39 in 10.0 mi SE 6.9 mph - N/A   Clear
4:52 AM 16.0 °F 5.3 °F 10.9 °F 81% 30.38 in 10.0 mi ESE 8.1 mph - N/A   Clear
5:52 AM 19.0 °F 7.5 °F 12.0 °F 74% 30.36 in 10.0 mi SE 10.4 mph - N/A   Clear
6:52 AM 19.0 °F 6.8 °F 12.0 °F 74% 30.34 in 10.0 mi SSE 11.5 mph - N/A   Clear
8:52 AM 23.0 °F 8.7 °F 14.0 °F 68% 30.33 in 10.0 mi SE 18.4 mph - N/A   Clear
9:52 AM 28.0 °F 14.3 °F 16.0 °F 61% 30.30 in 10.0 mi SSE 21.9 mph - N/A   Clear
10:52 AM 32.0 °F 20.5 °F 18.0 °F 56% 30.27 in 10.0 mi SSE 18.4 mph - N/A   Clear
11:52 AM 35.1 °F 23.3 °F 19.9 °F 54% 30.21 in 10.0 mi SSE 23.0 mph 28.8 mph N/A   Clear
12:52 PM 37.9 °F 27.1 °F 21.0 °F 51% 30.15 in 10.0 mi SSE 23.0 mph 28.8 mph N/A   Clear
1:52 PM 39.9 °F 30.0 °F 23.0 °F 51% 30.11 in 10.0 mi SSE 21.9 mph 31.1 mph N/A   Clear
2:52 PM 43.0 °F 33.8 °F 24.1 °F 47% 30.06 in 10.0 mi SSE 23.0 mph 28.8 mph N/A   Clear
3:52 PM 43.0 °F 34.0 °F 24.1 °F 47% 30.02 in 10.0 mi SSE 21.9 mph 29.9 mph N/A   Clear
4:52 PM 42.1 °F 32.3 °F 25.0 °F 51% 30.00 in 10.0 mi SSE 24.2 mph 32.2 mph N/A   Clear
5:52 PM 39.9 °F 29.2 °F 25.0 °F 55% 29.97 in 10.0 mi SSE 25.3 mph 32.2 mph N/A   Partly Cloudy
6:52 PM 39.9 °F 29.7 °F 26.1 °F 58% 29.96 in 10.0 mi SSE 23.0 mph 28.8 mph N/A   Partly Cloudy
7:52 PM 41.0 °F 31.4 °F 28.0 °F 60% 29.94 in 10.0 mi South 21.9 mph 31.1 mph N/A   Mostly Cloudy
8:52 PM 43.0 °F 33.3 °F 28.9 °F 58% 29.91 in 10.0 mi South 25.3 mph 29.9 mph N/A   Overcast
9:52 PM 44.1 °F 35.0 °F 30.0 °F 58% 29.90 in 10.0 mi South 24.2 mph 34.5 mph N/A   Scattered Clouds
10:52 PM 44.1 °F 35.0 °F 30.0 °F 58% 29.88 in 10.0 mi South 24.2 mph - N/A   Overcast
11:52 PM 44.1 °F 35.7 °F 30.9 °F 60% 29.86 in 10.0 mi South 20.7 mph - N/A   Overcast